Flag for Brazil Weather past 2 weeks in Rio Grande, Rio Grande do Sul, Brazil

Now
66 °F

Passing clouds.


Feels Like: 66 °F
Forecast: 61 / 68 °F
Wind: 8 mph from Southeast

Location: Porto Alegre Aero-Porto

Current Time: May 26, 2015 at 5:49:11 AM

Latest Report: May 26, 2015 at 5:00 AM


Visibility: N/A

Pressure: 30.07 "Hg

Humidity: 83%

Dew point: 61 °F

Location of Rio GrandeLocation

Historic Weather in Rio Grande — Graph

°F

Rio Grande temperature yesterday

Maximum temperature yesterday: 73 °F (at 2:00 PM)
Minimum temperature yesterday: 68 °F (at 12:00 AM)
Average temperature yesterday: 70 °F

Past Weeks' High & Low Weather Summary

 TemperatureHumidityPressure
High88 °F (May 23, 3:00 PM)100% (May 12, 4:00 AM)30.27 "Hg (May 12, 4:00 AM)
Low32 °F (May 24, 10:00 AM)40% (May 21, 4:00 PM)29.71 "Hg (May 23, 10:00 PM)
Average68 °F79%30.10 "Hg
* Reported May 11 5:00 AM — May 26 5:00 AM, Rio Grande, Weather by CustomWeather, © 2015

Note: Actual official high and low records may vary slightly from our data, if they occured in-between our weather recording intervals... More about our weather records

Advertising

Rio Grande weather history for previous 24 hours

 ConditionsComfort  
Time TempWeatherWind HumidityBarometerVisibility
5:00 AM
Tue, May 26
66 °FPassing clouds.8 mph83%30.07 "HgN/A
4:00 AM66 °FPassing clouds.7 mph83%30.07 "HgN/A
3:00 AM68 °FPassing clouds.9 mph78%30.07 "HgN/A
2:00 AM68 °FPassing clouds.8 mph73%30.09 "HgN/A
1:00 AM66 °FPassing clouds.7 mph78%30.09 "HgN/A
12:00 AM68 °FPassing clouds.9 mph73%30.12 "HgN/A
11:00 PM
Mon, May 25
68 °FPassing clouds.8 mph73%30.12 "HgN/A
10:00 PM68 °FPartly cloudy.10 mph73%30.12 "HgN/A
9:00 PM68 °FPartly cloudy.10 mph73%30.12 "HgN/A
8:00 PM68 °FPassing clouds.12 mph73%30.09 "HgN/A
7:00 PM70 °FPassing clouds.10 mph69%30.07 "HgN/A
6:00 PM70 °FPassing clouds.9 mph69%30.07 "HgN/A
5:00 PM72 °FPassing clouds.9 mph65%30.07 "HgN/A
4:00 PM72 °FPartly sunny.10 mph61%30.04 "HgN/A
3:00 PM72 °FPartly sunny.10 mph61%30.07 "HgN/A
2:00 PM73 °FPartly sunny.9 mph61%30.07 "HgN/A
1:00 PM72 °FPartly sunny.9 mph65%30.07 "HgN/A
12:00 PM72 °FPartly sunny.9 mph61%30.09 "HgN/A
11:00 AM72 °FScattered clouds.12 mph65%30.09 "HgN/A
10:00 AM72 °FPassing clouds.10 mph65%30.09 "HgN/A
9:00 AM70 °FPartly sunny.10 mph69%30.09 "HgN/A
8:00 AM68 °FOvercast.7 mph69%30.07 "HgN/A
7:00 AM68 °FPartly sunny.8 mph73%30.07 "HgN/A
6:00 AM68 °FPassing clouds.8 mph78%30.04 "Hg5 mi
5:00 AM68 °FPassing clouds.8 mph78%30.04 "Hg5 mi
Weather by CustomWeather, © 2015

See weather overviewHow to use our weather pages